Back to catalog

STARLINK-37689

AliveCommunicationsSSO
NORAD 69308·PAYLOAD·🇺🇸 United States

Launched May 30, 2026 from Vandenberg Space Force Base

Loading…

Next Passes (next 24 hours)

TLE

FreshSource: CelesTrak SupGP

Epoch: Sep 14, 2026, 22:41 UTC

1 69308C 26119N   26257.94562500 -.00003986  00000+0 -12366-3 0  2573
2 69308  97.2827 282.7699 0001544  92.7252 236.5291 15.33457377    11

Track STARLINK-37689 in real time with AllMySat

Download on the App Store